Klawock, AK

7:51 AM AKDT on April 19, 2018 (GMT -0800)
Klawock

Weather History for PAKW - November, 2012

Change the Weather History Date:

Tuesday, November 27, 2012

  Actual Average Record
Temperature  
Mean Temperature 36 °F -  
Max Temperature 37 °F 40 °F 50 °F (2002)
Min Temperature 35 °F 32 °F 12 °F (2006)
Degree Days  
Heating Degree Days 29    
Moisture  
Dew Point 32 °F    
Average Humidity 83    
Maximum Humidity 93    
Minimum Humidity 76    
Precipitation  
Precipitation 0.19 in - - ()
Sea Level Pressure  
Sea Level Pressure 29.85 in    
Wind  
Wind Speed 8 mph (NE)    
Max Wind Speed 16 mph    
Max Gust Speed 24 mph    
Visibility 10 miles    
Events Rain    
Averages and records for this station are not official NWS values.
T = Trace of Precipitation, MM = Missing Value Source: NWS Daily Summary

Daily Weather History Graph

Daily Weather History Graph

Search for Another Location

Airport or City:

Astronomy

Nov. 27, 2012 Rise Set
Actual Time 7:51 AM AKST 3:28 PM AKST
Civil Twilight 7:06 AM AKST 4:12 PM AKST
Nautical Twilight 6:20 AM AKST 4:59 PM AKST
Astronomical Twilight 5:35 AM AKST 5:44 PM AKST
Moon 3:07 PM AKST (11/27) 6:58 AM AKST (11/27)
Length of Visible Light 9h 06m
Length of Day
7h 37m
Full, 100% of the Moon is Illuminated
Nov 27
Full
Nov 28
Full
Dec 6
Last Quarter
Dec 12
New
Dec 19
First Quarter

Hourly Weather History & Observations

Time (AKST) Temp. Windchill Dew Point Humidity Pressure Visibility Wind Dir Wind Speed Gust Speed Precip Events Conditions
12:53 AM 35.1 °F 30.1 °F 32.0 °F 89% 30.01 in 10.0 mi NE 5.8 mph - N/A   Clear
1:53 AM 36.0 °F 32.1 °F 32.0 °F 86% 30.01 in 10.0 mi NNE 4.6 mph - N/A   Clear
3:53 AM 36.0 °F 31.1 °F 30.9 °F 82% 29.97 in 10.0 mi NE 5.8 mph - N/A   Clear
4:53 AM 36.0 °F 30.3 °F 30.0 °F 79% 29.97 in 10.0 mi NE 6.9 mph - 0.01 in   Clear
5:53 AM 36.0 °F 29.6 °F 30.0 °F 79% 29.95 in 10.0 mi NE 8.1 mph - N/A   Clear
6:53 AM 36.0 °F 32.1 °F 30.0 °F 79% 29.93 in 10.0 mi ENE 4.6 mph - N/A   Clear
7:53 AM 36.0 °F 30.3 °F 30.0 °F 79% 29.92 in 10.0 mi NNE 6.9 mph - N/A   Clear
8:53 AM 36.0 °F 31.1 °F 30.9 °F 82% 29.91 in 10.0 mi Variable 5.8 mph - N/A   Clear
9:53 AM 37.0 °F 30.4 °F 30.9 °F 79% 29.90 in 10.0 mi NE 9.2 mph - N/A   Overcast
10:53 AM 37.9 °F 31.5 °F 30.9 °F 76% 29.90 in 10.0 mi NNE 9.2 mph - N/A   Overcast
11:53 AM 37.9 °F 32.7 °F 30.9 °F 76% 29.88 in 10.0 mi NNE 6.9 mph - N/A   Overcast
12:53 PM 37.9 °F 30.5 °F 30.9 °F 76% 29.84 in 10.0 mi NNE 11.5 mph - N/A   Overcast
1:53 PM 37.9 °F 29.2 °F 30.9 °F 76% 29.82 in 10.0 mi NNE 15.0 mph 19.6 mph N/A   Overcast
2:53 PM 37.9 °F 30.9 °F 30.9 °F 76% 29.81 in 10.0 mi NE 10.4 mph 17.3 mph N/A   Overcast
3:53 PM 37.9 °F 30.9 °F 30.9 °F 76% 29.79 in 10.0 mi NNE 10.4 mph - N/A   Overcast
4:53 PM 37.9 °F 30.9 °F 32.0 °F 79% 29.79 in 10.0 mi NNE 10.4 mph - 0.00 in Rain Light Rain
5:53 PM 37.9 °F 34.4 °F 33.1 °F 83% 29.78 in 10.0 mi Variable 4.6 mph - 0.01 in Rain Light Rain
6:53 PM 37.9 °F 29.6 °F 34.0 °F 86% 29.75 in 10.0 mi NNE 13.8 mph 20.7 mph 0.00 in Rain Light Rain
7:53 PM 37.0 °F 28.5 °F 35.1 °F 93% 29.75 in 10.0 mi NNE 13.8 mph 19.6 mph 0.02 in Rain Light Rain
8:53 PM 37.0 °F 29.3 °F 35.1 °F 93% 29.76 in 9.0 mi NE 11.5 mph 19.6 mph 0.03 in Rain Light Rain
9:53 PM 37.0 °F 29.8 °F 35.1 °F 93% 29.75 in 10.0 mi NE 10.4 mph 21.9 mph 0.05 in Rain Light Rain
10:53 PM 37.0 °F 27.7 °F 35.1 °F 93% 29.74 in 10.0 mi NNE 16.1 mph 23.0 mph 0.04 in Rain Light Rain
11:53 PM 37.0 °F 27.7 °F 35.1 °F 93% 29.73 in 10.0 mi NNE 16.1 mph 24.2 mph 0.03 in Rain Light Rain